sat.trackr.live / text

‹ back to catalog

STARLINK-1531

NORAD 46572 · 2020-070AS

PAYLOAD ACTIVE UNKNOWN

§ Identity

Operator
Country
US
Launch date
2020-10-06
Launch site
AFETR
Launch vehicle
Mass (kg)
RCS (m²)

Purposes: comms

External: N2YO · Heavens-Above · Gunter

§ Orbital elements

Epoch: 2026-07-05T19:12:46.434816Z

Period
88.34 min
Inclination
53.0273°
Eccentricity
0.0011444
Mean motion
16.30106579 rev/d
Perigee alt
184.7 km
Apogee alt
199.8 km
Semi-major
6,570.4 km
B*
1.2400e-3
RAAN
266.5046°
Arg perigee
320.0984°
Mean anomaly
39.9216°
Rev number
31,870

§ Raw data

STARLINK-15311 46572U 20070AS  26186.80053744  .05982755  12170-4  12400-2 0  99922 46572  53.0273 266.5046 0011444 320.0984  39.9216 16.30106579318702

JSON: /api/v1/satellites/46572 · /tle

For live sub-satellite position, see the globe view (requires WebGL).

§ Visibility from observer

Set your observer location to see the next 7 days of passes ≥ 10°. The values pass through the URL so the page stays shareable.

No JS? Fill the form by hand. The geolocation button needs JavaScript.